[[{"header":{"parameterUnit":"m.s-1","parameterCategory":1,"la1":30.2991,"la2":30.254,"lo1":-89.0895,"lo2":-89.0444,"dy":0.0017,"dx":0.0017,"nx":28,"ny":28,"refTime":"2023-09-22T09:00:00:Z","depth":0,"parameterNumber":2,"parameterNumberName":"U-component_of_WINDS"},"data":[0,0,0,0,0,0,0,0,0,0,0,0,0,0,0,0,0,0,0,0,0,0,0,0,0,0,0,0,0,0,0,0,0,0,0,0,0,0,0,0,0,0,0,0,0,0,0,0,0,0,0,0,0,0,0,0,0,0,-1.8116,-1.8117,0,-1.8214,-1.8216,-1.8217,-1.8163,-1.8161,-1.8158,-1.8155,-1.8256,-1.8261,-1.8266,0,0,0,0,0,0,0,0,0,0,0,0,0,-1.7881,-1.7885,-1.8116,-1.8117,-1.8118,-1.8214,-1.8216,-1.8217,-1.8164,-1.816,-1.8157,-1.8154,-1.8254,-1.826,-1.8266,0,0,0,0,0,0,0,0,0,0,0,0,0,-1.7982,-1.7887,-1.8116,-1.8103,-1.8103,-1.8214,-1.8216,-1.8217,-1.8164,-1.816,-1.8156,-1.8153,-1.8252,-1.8259,-1.8267,-1.8395,0,0,-1.8291,-1.8294,0,0,0,0,0,0,0,0,-1.7976,-1.799,-1.8104,-1.8105,-1.8105,-1.8172,-1.8169,-1.8277,-1.8165,-1.8141,-1.8155,-1.8151,-1.8231,-1.824,-1.8268,-1.84,-1.8404,-1.8291,-1.8296,-1.8299,-1.8302,0,0,0,0,0,0,0,-1.7969,-1.7986,-1.8155,-1.8106,-1.8106,-1.8093,-1.8102,-1.8189,-1.8207,-1.8143,-1.8139,-1.8152,-1.823,-1.826,-1.827,-1.8406,-1.8291,-1.8298,-1.8303,-1.8306,-1.8648,-1.8652,0,0,0,0,0,0,-1.7963,-1.798,-1.8152,-1.8158,-1.8029,-1.81,-1.8111,-1.8155,-1.8206,-1.821,-1.8155,-1.8149,-1.8249,-1.8261,-1.8273,-1.8427,-1.8299,-1.8307,-1.8311,-1.8643,-1.8649,-1.8653,0,0,0,0,0,0,-1.7958,-1.7979,-1.8148,-1.8068,-1.8089,-1.8108,-1.8158,-1.8159,-1.8188,-1.8216,-1.8218,-1.8182,-1.8246,-1.8262,-1.8365,-1.8429,-1.831,-1.8317,-1.8638,-1.8645,-1.8651,-1.8735,0,0,0,0,0,0,-1.7951,-1.7977,-1.8027,-1.807,-1.8093,-1.8239,-1.8162,-1.8164,-1.8202,-1.8195,-1.8242,-1.8246,-1.8244,-1.8354,-1.8373,-1.8438,-1.8323,-1.8632,-1.8641,-1.8649,-1.8727,-1.8744,-1.8758,0,0,0,0,0,-1.7943,-1.8046,-1.8029,-1.805,-1.8155,-1.8243,-1.8256,-1.8253,-1.8207,-1.8257,-1.8274,-1.8244,-1.8419,-1.8365,-1.8386,-1.8454,-1.8628,-1.8639,-1.8648,-1.872,-1.874,-1.8758,0,0,0,0,0,0,-1.801,-1.8052,-1.8033,-1.8153,-1.8195,-1.8234,-1.8296,-1.8275,-1.833,-1.8321,-1.8314,-1.8325,-1.8433,-1.8453,-1.8392,-1.8581,-1.8517,-1.8531,-1.8564,-1.8584,-1.8599,-1.8592,-1.833,0,0,0,0,0,-1.8039,-1.8107,-1.8139,-1.8242,-1.8264,-1.8277,-1.8315,-1.8308,-1.8351,-1.8368,-1.8393,-1.8436,-1.85,-1.8543,-1.8603,-1.8729,-1.8738,-1.8786,-1.8802,-1.8815,-1.8828,-1.8896,-1.8917,-1.8686,-1.8686,-1.8686,0,0,-1.8099,-1.813,-1.8173,-1.8256,-1.8288,-1.8358,-1.8292,-1.8369,-1.8421,-1.838,-1.8479,-1.8499,-1.8546,-1.8661,-1.8713,-1.8681,-1.8893,-1.8827,-1.8837,-1.8844,-1.8908,-1.893,-1.8949,-1.8693,-1.8692,-1.8691,0,0,-1.8244,-1.8274,-1.8363,-1.8396,-1.8445,-1.8453,-1.8474,-1.8516,-1.8528,-1.8627,-1.8598,-1.8659,-1.877,-1.8805,-1.8837,-1.8995,-1.8969,-1.9015,-1.9098,-1.9164,-1.9182,-1.9199,-1.9255,-1.9276,-1.9027,-1.9028,-1.9028,0,-1.8313,-1.8418,-1.8412,-1.8492,-1.8529,-1.8495,-1.8585,-1.8617,-1.8683,-1.8709,-1.8673,-1.8811,-1.884,-1.8963,-1.9002,-1.9029,-1.9053,-1.901,-1.918,-1.9196,-1.9211,-1.9266,-1.9287,-1.9033,-1.9032,-1.9032,-1.9031,0,-1.85,-1.8573,-1.8639,-1.8704,-1.8749,-1.8833,-1.8839,-1.8885,-1.8875,-1.8886,-1.8987,-1.9021,-1.9088,-1.9116,-1.9107,-1.9238,-1.9217,-1.9181,-1.9116,-1.9239,-1.929,-1.931,-1.904,-1.9038,-1.9037,-1.9036,0,0,-1.8691,-1.8751,-1.8776,-1.8805,-1.8856,-1.8912,-1.8995,-1.906,-1.91,-1.9146,-1.9215,-1.931,-1.9277,-1.9313,-1.9307,-1.9365,-1.9488,-1.9322,-1.9323,-1.9352,-1.9635,-1.9663,-1.9687,-1.9471,-1.9475,-1.9478,-1.9631,0,-1.8841,-1.8986,-1.8982,-1.9117,-1.9185,-1.9153,-1.9225,-1.9264,-1.9276,-1.9335,-1.9348,-1.9416,-1.9367,-1.9389,-1.9445,-1.9462,-1.9545,-1.945,-1.9536,-1.9539,-1.9526,-1.9713,-1.9743,-1.9886,-1.9651,-1.9654,-1.9657,0,-1.9035,-1.9088,-1.923,-1.9271,-1.9299,-1.9364,-1.9423,-1.948,-1.9523,-1.9528,-1.9569,-1.9553,-1.9637,-1.9569,-1.9684,-1.9619,-1.9654,-1.9667,-1.9673,-1.9681,-1.9606,-1.9728,-1.9931,-1.9953,-1.9688,-1.9685,-1.9683,0,-1.9161,-1.9268,-1.9367,-1.9392,-1.9442,-1.9489,-1.9511,-1.955,-1.959,-1.9642,-1.9667,-1.9728,-1.9762,-1.9809,-1.981,-1.9761,-1.9926,-1.9859,-1.9933,-1.9933,-1.997,-1.9968,-2.0183,-1.9991,-1.9991,-1.999,-1.999,0,-1.9329,-1.9417,-1.9424,-1.9485,-1.9583,-1.9577,-1.9674,-1.9692,-1.9727,-1.979,-1.9766,-1.9826,-1.9823,-1.9884,-1.9885,-1.998,-1.9995,-2.0001,-2.0001,-2.0004,-2.0004,-2.0028,-2.0018,-1.9996,-1.9995,-1.9993,-1.9993,0,-1.9487,-1.9495,-1.9601,-1.9639,-1.9651,-1.9721,-1.9754,-1.9811,-1.9821,-1.9902,-1.992,-1.9936,-2.0006,-2.0012,-2.0093,-2.0093,-2.0209,-2.0197,-2.0195,-2.0193,-2.0267,-2.0261,-2.0506,-2.0538,-2.0324,-2.0326,-2.0328,0,-1.9594,-1.9662,-1.9707,-1.9748,-1.9774,-1.984,-1.988,-1.9877,-1.992,-1.9973,-2.0025,-2.0092,-2.0147,-2.026,-2.0279,-2.034,-2.033,-2.0412,-2.0339,-2.0341,-2.0332,-2.0329,-2.0336,-2.0426,-2.0429,-2.0431,-2.0432,0,-1.9784,-1.9784,-1.9844,-1.9905,-1.9954,-2.0001,-2.0046,-2.0081,-2.0082,-2.0132,-2.0203,-2.0246,-2.0328,-2.0396,-2.0456,-2.0479,-2.0457,-2.0455,-2.0475,-2.048,-2.0476,-2.048,-2.0234,-2.0449,-2.0448,-2.0446,-2.0445,-2.0445,-1.992,-1.9979,-2.002,-2.0087,-2.012,-2.0162,-2.0218,-2.0235,-2.0294,-2.0362,-2.0356,-2.0435,-2.0476,-2.0555,-2.0582,-2.0644,-2.0616,-2.0646,-2.0654,-2.0661,-2.0669,-2.0466,-2.0655,-2.0654,-2.0654,-2.0653,-2.0653,0,-2.0109,-2.0134,-2.0195,-2.0259,-2.0311,-2.0285,-2.0332,-2.0378,-2.0448,-2.0488,-2.0542,-2.0624,-2.0689,-2.0713,-2.0776,-2.0821,-2.0812,-2.0838,-2.0835,-2.0841,-2.069,-2.0666,-2.0844,-2.0844,-2.0844,-2.0844,-2.0844,-2.0844,-2.0214,-2.0311,-2.0316,-2.0429,-2.0453,-2.0531,-2.0561,-2.0599,-2.0631,-2.0724,-2.0779,-2.0793,-2.0826,-2.0892,-2.0951,-2.0956,-2.0981,-2.1011,-2.1012,-2.0871,-2.0852,-2.0833,-2.0811,-2.1016,-2.1016,-2.1158,-2.1159,-2.116]},{"header":{"parameterUnit":"m.s-1","parameterCategory":1,"la1":30.2991,"la2":30.254,"lo1":-89.0895,"lo2":-89.0444,"dy":0.0017,"dx":0.0017,"nx":28,"ny":28,"refTime":"2023-09-22T09:00:00:Z","depth":0,"parameterNumber":3,"parameterNumberName":"V-component_of_WINDS"},"data":[0,0,0,0,0,0,0,0,0,0,0,0,0,0,0,0,0,0,0,0,0,0,0,0,0,0,0,0,0,0,0,0,0,0,0,0,0,0,0,0,0,0,0,0,0,0,0,0,0,0,0,0,0,0,0,0,0,0,-2.9031,-2.9032,0,-2.9051,-2.9051,-2.9051,-2.9013,-2.9012,-2.901,-2.9009,-2.9028,-2.903,-2.9032,0,0,0,0,0,0,0,0,0,0,0,0,0,-2.8958,-2.896,-2.9031,-2.9032,-2.9032,-2.9051,-2.9051,-2.9051,-2.9013,-2.9012,-2.901,-2.9009,-2.9028,-2.903,-2.9032,0,0,0,0,0,0,0,0,0,0,0,0,0,-2.8985,-2.896,-2.9031,-2.9015,-2.9014,-2.9051,-2.9051,-2.9052,-2.9013,-2.9012,-2.901,-2.9008,-2.9027,-2.9029,-2.9032,-2.9085,0,0,-2.904,-2.9041,0,0,0,0,0,0,0,0,-2.8984,-2.8988,-2.9017,-2.9016,-2.9015,-2.9028,-2.9032,-2.9063,-2.9014,-2.9014,-2.9009,-2.9007,-2.9029,-2.9032,-2.9039,-2.9086,-2.9087,-2.904,-2.9041,-2.9043,-2.9043,0,0,0,0,0,0,0,-2.8982,-2.8987,-2.9039,-2.9018,-2.9016,-2.9006,-2.9008,-2.9038,-2.9032,-2.9013,-2.9011,-2.9014,-2.9028,-2.9037,-2.904,-2.9087,-2.904,-2.9042,-2.9044,-2.9045,-2.9177,-2.9179,0,0,0,0,0,0,-2.8982,-2.8986,-2.9038,-2.904,-2.8994,-2.9009,-2.9011,-2.9025,-2.9031,-2.9031,-2.9015,-2.9012,-2.9034,-2.9037,-2.904,-2.9102,-2.9043,-2.9045,-2.9046,-2.9175,-2.9177,-2.9179,0,0,0,0,0,0,-2.8981,-2.8987,-2.9038,-2.9012,-2.9017,-2.9012,-2.9029,-2.9027,-2.9035,-2.9033,-2.9031,-2.9025,-2.9032,-2.9037,-2.9074,-2.9102,-2.9046,-2.9048,-2.9173,-2.9176,-2.9178,-2.9226,0,0,0,0,0,0,-2.8979,-2.8987,-2.9008,-2.9013,-2.9019,-2.9072,-2.9031,-2.9029,-2.904,-2.9036,-2.9042,-2.9041,-2.9031,-2.907,-2.9077,-2.9104,-2.905,-2.917,-2.9174,-2.9177,-2.9222,-2.923,-2.9237,0,0,0,0,0,-2.8977,-2.9021,-2.9009,-2.9016,-2.9045,-2.9074,-2.9077,-2.9065,-2.9043,-2.9063,-2.9061,-2.9041,-2.9098,-2.9075,-2.9081,-2.911,-2.9168,-2.9173,-2.9177,-2.9218,-2.9229,-2.9237,0,0,0,0,0,0,-2.902,-2.9021,-2.9009,-2.9056,-2.9065,-2.9067,-2.9093,-2.9077,-2.9092,-2.9088,-2.9072,-2.9074,-2.9114,-2.9116,-2.909,-2.9161,-2.9129,-2.9135,-2.9158,-2.9168,-2.9175,-2.9174,-2.9052,0,0,0,0,0,-2.9035,-2.9059,-2.9059,-2.91,-2.9106,-2.9099,-2.9111,-2.91,-2.9109,-2.9113,-2.9113,-2.9122,-2.9142,-2.9155,-2.9173,-2.9222,-2.9222,-2.9245,-2.9253,-2.9259,-2.9264,-2.9288,-2.9298,-2.9194,-2.9194,-2.9194,0,0,-2.9067,-2.907,-2.9086,-2.9109,-2.9115,-2.9139,-2.9102,-2.9129,-2.9146,-2.9117,-2.9152,-2.9153,-2.9161,-2.9204,-2.9223,-2.9207,-2.9293,-2.9265,-2.927,-2.9272,-2.9294,-2.9304,-2.9313,-2.9197,-2.9197,-2.9196,0,0,-2.9136,-2.9142,-2.9176,-2.9183,-2.9192,-2.9187,-2.9195,-2.9199,-2.9198,-2.9233,-2.9211,-2.9231,-2.9266,-2.9272,-2.928,-2.935,-2.9331,-2.9356,-2.9396,-2.942,-2.9428,-2.9435,-2.9459,-2.9468,-2.9361,-2.9362,-2.9362,0,-2.9174,-2.921,-2.9196,-2.9224,-2.9234,-2.9208,-2.9242,-2.9249,-2.9264,-2.9271,-2.9252,-2.9294,-2.9298,-2.9341,-2.9358,-2.9366,-2.9374,-2.9355,-2.9428,-2.9435,-2.9442,-2.9464,-2.9473,-2.9364,-2.9364,-2.9364,-2.9364,0,-2.9255,-2.928,-2.9306,-2.932,-2.9333,-2.9365,-2.9355,-2.9369,-2.9358,-2.9354,-2.9389,-2.9393,-2.941,-2.942,-2.9409,-2.9461,-2.9451,-2.9431,-2.9398,-2.9455,-2.9475,-2.9484,-2.9368,-2.9367,-2.9367,-2.9366,0,0,-2.9353,-2.9358,-2.9368,-2.9373,-2.938,-2.9399,-2.9428,-2.9445,-2.9457,-2.9468,-2.9491,-2.952,-2.9501,-2.951,-2.95,-2.9521,-2.9574,-2.9498,-2.9498,-2.9511,-2.9629,-2.9643,-2.9654,-2.9562,-2.9563,-2.9565,-2.9628,0,-2.942,-2.947,-2.9458,-2.9508,-2.9529,-2.9504,-2.9529,-2.9536,-2.9533,-2.955,-2.9547,-2.9567,-2.9542,-2.9546,-2.9566,-2.9563,-2.9597,-2.9559,-2.9582,-2.9583,-2.958,-2.9664,-2.968,-2.9739,-2.9636,-2.9637,-2.9638,0,-2.9506,-2.9519,-2.957,-2.9572,-2.9581,-2.9604,-2.9617,-2.9635,-2.9641,-2.9637,-2.9647,-2.9632,-2.9659,-2.9627,-2.9664,-2.9638,-2.9647,-2.9647,-2.9649,-2.9649,-2.9613,-2.9666,-2.9758,-2.9767,-2.9651,-2.965,-2.9649,0,-2.957,-2.9601,-2.9635,-2.964,-2.9644,-2.966,-2.9662,-2.9667,-2.9677,-2.9689,-2.9695,-2.9711,-2.9719,-2.973,-2.9719,-2.9697,-2.9757,-2.9725,-2.9754,-2.9754,-2.9767,-2.9766,-2.986,-2.9775,-2.9775,-2.9775,-2.9774,0,-2.9646,-2.9678,-2.9663,-2.9684,-2.9719,-2.9704,-2.9739,-2.9738,-2.9742,-2.9761,-2.9741,-2.976,-2.9744,-2.9762,-2.9753,-2.9784,-2.9788,-2.9785,-2.9782,-2.9786,-2.9787,-2.9791,-2.9786,-2.9777,-2.9777,-2.9776,-2.9776,0,-2.9723,-2.9715,-2.975,-2.975,-2.9751,-2.9776,-2.9776,-2.9795,-2.979,-2.9815,-2.982,-2.9812,-2.9831,-2.9821,-2.9841,-2.9835,-2.9875,-2.9867,-2.9873,-2.987,-2.9899,-2.9896,-2.9999,-3.0011,-2.9919,-2.992,-2.9921,0,-2.9772,-2.9796,-2.9798,-2.9809,-2.9813,-2.9832,-2.9842,-2.9828,-2.9839,-2.9847,-2.9865,-2.9882,-2.9895,-2.9926,-2.9922,-2.9937,-2.9928,-2.9963,-2.993,-2.9933,-2.9927,-2.9925,-2.9927,-2.9969,-2.9971,-2.9971,-2.9972,0,-2.9858,-2.9853,-2.9868,-2.9882,-2.9894,-2.9904,-2.9913,-2.9923,-2.9909,-2.9923,-2.9941,-2.9951,-2.9971,-2.9988,-3.0,-3.0001,-2.9984,-2.9983,-2.999,-2.9994,-2.9995,-2.9993,-2.9889,-2.998,-2.9979,-2.9979,-2.9978,-2.9978,-2.9922,-2.9941,-2.9945,-2.9962,-2.9967,-2.9975,-2.9992,-2.9988,-3.0004,-3.0018,-3.0009,-3.0031,-3.0035,-3.005,-3.0053,-3.007,-3.0056,-3.0067,-3.0069,-3.0072,-3.0075,-2.9994,-3.0072,-3.0072,-3.0072,-3.0072,-3.0071,0,-3.0006,-3.0007,-3.0023,-3.0034,-3.0048,-3.003,-3.0038,-3.005,-3.0069,-3.0075,-3.0087,-3.0108,-3.0124,-3.0121,-3.0135,-3.0148,-3.014,-3.0152,-3.015,-3.0151,-3.0088,-3.0079,-3.0158,-3.0158,-3.0158,-3.0158,-3.0158,-3.0158,-3.0051,-3.0082,-3.0076,-3.0109,-3.0109,-3.013,-3.0136,-3.0142,-3.0146,-3.017,-3.0183,-3.0181,-3.0182,-3.0196,-3.0209,-3.0208,-3.0213,-3.0228,-3.0223,-3.0164,-3.0155,-3.0147,-3.0139,-3.0229,-3.0229,-3.0285,-3.0285,-3.0285]}]]